Location: *
(28.2408°N, 53.4600°E)
Time: 08:44:08
(UTC+00:00)

Okean 1 Rocket - Pass Details

Date: 22 September 2019
Orbit: 608 x 634 km, 82.5° (Epoch: 14 October)

Event Time Altitude Azimuth Distance (km) Brightness Sun altitude
Rises 15:09:39 0° 192° (SSW) 2,849 6.5 -11.0°
Reaches altitude 10° 15:11:52 10° 195° (SSW) 1,949 5.7 -11.5°
Maximum altitude 15:16:08 62° 276° (W) 683 3.6 -12.4°
Drops below altitude 10° 15:20:27 10° 358° (N) 1,967 5.8 -13.4°
Sets 15:22:42 0° 2° (N) 2,878 6.6 -13.9°
